Regional Weather Roundup
Issued by NWS Green Bay, WI

Home | Current Version | Previous Version | Text Only | Print | Product List | Glossary On
Versions: 1 2 3 4 5 6 7 8 9 10 11 12 13 14 15 16 17 18 19 20 21 22 23 24 25 26 27 28 29 30 31 32 33 34 35 36 37 38 39 40 41 42 43 44 45 46 47 48 49 50
000
ASUS43 KGRB 071911
RWRGRB

NORTH-CENTRAL AND NORTHEAST WISCONSIN REGIONAL WEATHER ROUNDUP
NATIONAL WEATHER SERVICE GREEN BAY WI
200 PM CDT TUE JUL 07 2015

WIZ005-009-010>012-018-019-072000-
NORTH CENTRAL WISCONSIN

CITY           SKY/WX    TMP DP  RH WIND       PRES   REMARKS
IRONWOOD       SUNNY     61  41  48 NW7       30.11F
MANITOWISH WTR MOSUNNY   62  45  52 N8G16     30.12S
ARBOR VITAE    MOSUNNY   64  45  50 N6        30.11F
EAGLE RIVER    PTSUNNY   63  43  48 N9G16     30.10S
LAND O LAKES   PTSUNNY   63  43  48 N9G18     30.12S
RHINELANDER    CLOUDY    63  44  50 VRB6      30.11S
PHILLIPS       MOSUNNY   64  46  51 N10G17    30.11F
ANTIGO         CLOUDY    63  49  59 N9G16     30.09S
TOMAHAWK       PTSUNNY   62  46  55 N6        30.11F
MERRILL        MOSUNNY   66  48  51 N7        30.10S
$$

WIZ013-073-072000-
NORTHEAST WISCONSIN

CITY           SKY/WX    TMP DP  RH WIND       PRES   REMARKS
IRON MOUNTAIN  CLOUDY    64  46  52 N15       30.06S
MARINETTE      PTSUNNY   64  46  52 N14G21    30.05R
OCONTO         CLOUDY    66  49  53 N8G21     30.05S
$$

WIZ017-030-035>037-045-072000-
CENTRAL WISCONSIN

CITY           SKY/WX    TMP DP  RH WIND       PRES   REMARKS
MEDFORD        PTSUNNY   64  46  52 N8        30.11S
WAUSAU         MOSUNNY   67  45  45 N9G20     30.07F
MOSINEE        PTSUNNY   64  46  52 N10       30.10F
MARSHFIELD     PTSUNNY   66  46  48 N7G16     30.10F
WISC RAPIDS    MOSUNNY   68  45  43 N12       30.10F
STEVENS POINT  MOSUNNY   65  45  49 N10G21    30.09F
WAUPACA        PTSUNNY   71  45  39 N8        30.08S
SHAWANO        CLOUDY    68  48  47 N14       30.06F
CLINTONVILLE   CLOUDY    68  45  42 N7        30.06S
$$

WIZ038-039-048-051-072000-
FOX VALLEY

CITY           SKY/WX    TMP DP  RH WIND       PRES   REMARKS
NWS GREEN BAY  PTSUNNY   69  49  48 N9        30.05F
APPLETON       PTSUNNY   64  45  48 NW12G18   30.07S
OSHKOSH        PTSUNNY   67  47  48 N16       30.06S
FOND DU LAC    PTSUNNY   67  49  52 N12       30.06S
$$

WIZ022-050-052-072000-
EAST CENTRAL WISCONSIN

CITY           SKY/WX    TMP DP  RH WIND       PRES   REMARKS
STURGEON BAY   MOSUNNY   63  48  59 N16       30.07S
MANITOWOC      PTSUNNY   65  48  54 MISG      30.05S
SHEBOYGAN      CLOUDY    65  49  56 N10       30.04S
$$

LMZ563-521-522-541>543-072000-
LAKESHORE

STATION/POSITION TIME  TEMP    WIND        PRES    VSBY  WAVE
                       AIR SEA DIR/SP/G                  HT/PER
                 (UTC) (F)     (DEG/KT/KT) (MB)    (MI)  (FT/S)
SHEBOYGAN LKSHOR 1900   57      40/ 13/ 14 1017.8R
KEWAUNEE LKSHORE 1800   63     350/ 10/ 14 1016.8R
ALGOMA MARINA    1841          330/ 15/ 20   N/A
NORTHPORT PIER   1800   60     340/ 16/ 23 1017.3R
N MID LAKE BUOY  1850   56 53  310/ 12/ 14 1016.7R         2/ 3
S GREEN BAY BUOY 1900   64 68  360/ 14/ 17 1018.7
SISTER BAY LKSHO 1814   63     360/ 20/ 24   N/A
STURGEON BAY CG  1815   64     330/  8     1018.2      6   1
CHAMBERS ISLAND  1800   63     330/ 11/ 15 1017.6R
MENOMINEE LKSHOR 1800   62     360/ 16/ 18 1018.0R
$$



USA.gov is the U.S. government's official web portal to all federal, state and local government web resources and services.